Time,TemperatureF,DewpointF,PressureIn,WindDirection,WindDirectionDegrees,WindSpeedMPH,WindSpeedGustMPH,Humidity,HourlyPrecipIn,Conditions,Clouds,dailyrainin,SoftwareType,DateUTC
2013-03-07 00:00:00,30.7,9.8,0.00,West,274,0.0,0.0,41,0.00,,SKC,0.00,VWS V14.00,2013-03-07 05:00:00,
2013-03-07 00:01:00,30.7,9.8,0.00,West,274,0.0,0.0,41,0.00,,SKC,0.00,VWS V14.00,2013-03-07 05:01:00,
2013-03-07 00:06:00,30.7,9.8,0.00,West,274,0.0,0.0,41,0.00,,SKC,0.00,VWS V14.00,2013-03-07 05:06:00,
2013-03-07 00:11:00,30.7,9.8,0.00,West,274,0.0,0.0,41,0.00,,SKC,0.00,VWS V14.00,2013-03-07 05:11:00,
2013-03-07 00:16:00,30.7,9.8,0.00,WNW,283,0.0,0.0,41,0.00,,SKC,0.00,VWS V14.00,2013-03-07 05:16:00,
2013-03-07 00:21:00,30.7,9.8,0.00,WNW,283,0.0,0.0,41,0.00,,SKC,0.00,VWS V14.00,2013-03-07 05:21:00,
2013-03-07 00:26:00,30.7,9.8,0.00,WNW,283,0.0,0.0,41,0.00,,SKC,0.00,VWS V14.00,2013-03-07 05:26:00,
2013-03-07 00:31:00,30.7,9.8,0.00,WNW,283,0.0,0.0,41,0.00,,SKC,0.00,VWS V14.00,2013-03-07 05:31:00,
2013-03-07 00:36:00,30.7,9.8,0.00,WNW,283,0.0,0.0,41,0.00,,SKC,0.00,VWS V14.00,2013-03-07 05:36:00,
2013-03-07 00:41:00,30.6,9.7,0.00,WNW,283,0.0,0.0,41,0.00,,SKC,0.00,VWS V14.00,2013-03-07 05:41:00,
2013-03-07 00:46:00,30.6,9.7,0.00,WNW,283,0.0,0.0,41,0.00,,SKC,0.00,VWS V14.00,2013-03-07 05:46:00,
2013-03-07 00:51:00,30.6,9.7,0.00,WNW,283,0.0,0.0,41,0.00,,SKC,0.00,VWS V14.00,2013-03-07 05:51:00,
2013-03-07 00:56:00,30.6,9.7,0.00,WNW,283,0.0,0.0,41,0.00,,SKC,0.00,VWS V14.00,2013-03-07 05:56:00,
2013-03-07 01:01:00,30.6,9.7,0.00,WNW,283,0.0,0.0,41,0.00,,SKC,0.00,VWS V14.00,2013-03-07 06:01:00,
2013-03-07 01:06:00,30.6,9.7,0.00,WNW,283,0.0,0.0,41,0.00,,SKC,0.00,VWS V14.00,2013-03-07 06:06:00,
2013-03-07 01:11:00,30.6,9.7,0.00,WNW,283,0.0,0.0,41,0.00,,SKC,0.00,VWS V14.00,2013-03-07 06:11:00,
2013-03-07 01:16:00,30.6,9.7,0.00,WNW,283,0.0,0.0,41,0.00,,SKC,0.00,VWS V14.00,2013-03-07 06:16:00,
2013-03-07 01:21:00,30.6,9.7,0.00,West,280,0.0,0.0,41,0.00,,SKC,0.00,VWS V14.00,2013-03-07 06:21:00,
2013-03-07 01:26:00,30.6,9.7,0.00,WNW,287,0.0,0.0,41,0.00,,SKC,0.00,VWS V14.00,2013-03-07 06:26:00,
2013-03-07 01:31:00,30.6,9.7,0.00,WNW,287,0.0,0.0,41,0.00,,SKC,0.00,VWS V14.00,2013-03-07 06:31:00,
2013-03-07 01:36:00,30.6,9.7,0.00,WNW,295,0.0,0.0,41,0.00,,SKC,0.00,VWS V14.00,2013-03-07 06:36:00,
2013-03-07 01:41:00,30.6,9.7,0.00,WNW,287,0.0,0.0,41,0.00,,SKC,0.00,VWS V14.00,2013-03-07 06:41:00,
2013-03-07 01:46:00,30.6,9.7,0.00,West,274,0.0,0.0,41,0.00,,SKC,0.00,VWS V14.00,2013-03-07 06:46:00,
2013-03-07 01:51:00,30.6,9.7,0.00,West,281,0.0,0.0,41,0.00,,SKC,0.00,VWS V14.00,2013-03-07 06:51:00,
2013-03-07 01:56:00,30.4,9.5,0.00,WNW,283,0.0,0.0,41,0.00,,SKC,0.00,VWS V14.00,2013-03-07 06:56:00,
2013-03-07 02:01:00,30.4,9.5,0.00,WNW,282,0.0,0.0,41,0.00,,SKC,0.00,VWS V14.00,2013-03-07 07:01:00,
2013-03-07 02:06:00,30.4,9.5,0.00,West,270,0.0,0.0,41,0.00,,SKC,0.00,VWS V14.00,2013-03-07 07:06:00,
2013-03-07 02:11:00,30.4,9.5,0.00,West,270,0.0,0.0,41,0.00,,SKC,0.00,VWS V14.00,2013-03-07 07:11:00,
2013-03-07 02:16:00,30.4,9.5,0.00,NW,319,0.0,0.0,41,0.00,,SKC,0.00,VWS V14.00,2013-03-07 07:16:00,
2013-03-07 02:21:00,30.4,9.5,0.00,West,279,0.0,0.0,41,0.00,,SKC,0.00,VWS V14.00,2013-03-07 07:21:00,
2013-03-07 02:26:00,30.2,9.4,0.00,WNW,289,0.0,0.0,41,0.00,,SKC,0.00,VWS V14.00,2013-03-07 07:26:00,
2013-03-07 02:31:00,30.2,9.4,0.00,West,281,0.0,0.0,41,0.00,,SKC,0.00,VWS V14.00,2013-03-07 07:31:00,
2013-03-07 02:36:00,30.2,9.4,0.00,WNW,283,0.0,0.0,41,0.00,,SKC,0.00,VWS V14.00,2013-03-07 07:36:00,
2013-03-07 02:41:00,30.2,9.4,0.00,West,281,0.0,0.0,41,0.00,,SKC,0.00,VWS V14.00,2013-03-07 07:41:00,
2013-03-07 02:46:00,30.2,9.4,0.00,WNW,301,0.0,0.0,41,0.00,,SKC,0.00,VWS V14.00,2013-03-07 07:46:00,
2013-03-07 02:51:00,30.2,9.4,0.00,WNW,285,0.0,0.0,41,0.00,,SKC,0.00,VWS V14.00,2013-03-07 07:51:00,
2013-03-07 02:56:00,30.2,9.4,0.00,NW,306,0.0,0.0,41,0.00,,SKC,0.00,VWS V14.00,2013-03-07 07:56:00,
2013-03-07 03:01:00,30.2,9.4,0.00,West,280,0.0,0.0,41,0.00,,SKC,0.00,VWS V14.00,2013-03-07 08:01:00,
2013-03-07 03:06:00,30.2,9.4,0.00,West,280,0.0,0.0,41,0.00,,SKC,0.00,VWS V14.00,2013-03-07 08:06:00,
2013-03-07 03:11:00,30.2,9.4,0.00,West,280,0.0,0.0,41,0.00,,SKC,0.00,VWS V14.00,2013-03-07 08:11:00,
2013-03-07 03:16:00,30.2,9.4,0.00,NNW,335,0.0,0.0,41,0.00,,SKC,0.00,VWS V14.00,2013-03-07 08:16:00,
2013-03-07 03:21:00,30.2,9.4,0.00,NNW,335,0.0,0.0,41,0.00,,SKC,0.00,VWS V14.00,2013-03-07 08:21:00,
2013-03-07 03:26:00,30.2,9.4,0.00,NNW,335,0.0,0.0,41,0.00,,SKC,0.00,VWS V14.00,2013-03-07 08:26:00,
2013-03-07 03:31:00,30.0,9.2,0.00,NNW,334,0.0,0.0,41,0.00,,SKC,0.00,VWS V14.00,2013-03-07 08:31:00,
2013-03-07 03:36:00,30.0,9.2,0.00,NNW,332,0.0,0.0,41,0.00,,SKC,0.00,VWS V14.00,2013-03-07 08:36:00,
2013-03-07 03:41:00,30.2,9.4,0.00,WNW,284,0.0,0.0,41,0.00,,SKC,0.00,VWS V14.00,2013-03-07 08:41:00,
2013-03-07 03:46:00,30.2,9.4,0.00,WNW,283,0.0,0.0,41,0.00,,SKC,0.00,VWS V14.00,2013-03-07 08:46:00,
2013-03-07 03:51:00,30.2,9.4,0.00,WNW,299,0.0,0.0,41,0.00,,SKC,0.00,VWS V14.00,2013-03-07 08:51:00,
2013-03-07 03:56:00,30.2,9.4,0.00,West,278,0.0,0.0,41,0.00,,SKC,0.00,VWS V14.00,2013-03-07 08:56:00,
2013-03-07 04:01:00,30.2,9.4,0.00,West,278,0.0,0.0,41,0.00,,SKC,0.00,VWS V14.00,2013-03-07 09:01:00,
2013-03-07 04:06:00,30.2,9.4,0.00,West,278,0.0,0.0,41,0.00,,SKC,0.00,VWS V14.00,2013-03-07 09:06:00,
2013-03-07 04:11:00,30.2,9.4,0.00,West,271,0.0,0.0,41,0.00,,SKC,0.00,VWS V14.00,2013-03-07 09:11:00,
2013-03-07 04:16:00,30.2,9.4,0.00,West,271,0.0,0.0,41,0.00,,SKC,0.00,VWS V14.00,2013-03-07 09:16:00,
2013-03-07 04:21:00,30.2,9.4,0.00,WNW,292,0.0,0.0,41,0.00,,SKC,0.00,VWS V14.00,2013-03-07 09:21:00,
2013-03-07 04:26:00,30.2,9.4,0.00,WNW,292,0.0,0.0,41,0.00,,SKC,0.00,VWS V14.00,2013-03-07 09:26:00,
2013-03-07 04:31:00,30.2,9.4,0.00,NNW,344,0.0,0.0,41,0.00,,SKC,0.00,VWS V14.00,2013-03-07 09:31:00,
2013-03-07 04:36:00,30.2,9.4,0.00,NW,308,0.0,0.0,41,0.00,,SKC,0.00,VWS V14.00,2013-03-07 09:36:00,
2013-03-07 04:41:00,30.2,9.4,0.00,NNW,340,0.0,0.0,41,0.00,,SKC,0.00,VWS V14.00,2013-03-07 09:41:00,
2013-03-07 04:46:00,30.2,9.4,0.00,NNW,340,0.0,0.0,41,0.00,,SKC,0.00,VWS V14.00,2013-03-07 09:46:00,
2013-03-07 04:51:00,30.2,9.4,0.00,NNW,341,0.0,0.0,41,0.00,,SKC,0.00,VWS V14.00,2013-03-07 09:51:00,
2013-03-07 04:56:00,30.2,9.4,0.00,West,272,0.0,0.0,41,0.00,,SKC,0.00,VWS V14.00,2013-03-07 09:56:00,
2013-03-07 05:01:00,30.2,9.4,0.00,West,280,0.0,0.0,41,0.00,,SKC,0.00,VWS V14.00,2013-03-07 10:01:00,
2013-03-07 05:06:00,30.2,9.4,0.00,WNW,283,0.0,0.0,41,0.00,,SKC,0.00,VWS V14.00,2013-03-07 10:06:00,
2013-03-07 05:11:00,30.2,9.4,0.00,West,273,0.0,0.0,41,0.00,,SKC,0.00,VWS V14.00,2013-03-07 10:11:00,
2013-03-07 05:16:00,30.2,9.4,0.00,West,272,0.0,0.0,41,0.00,,SKC,0.00,VWS V14.00,2013-03-07 10:16:00,
2013-03-07 05:21:00,30.2,9.4,0.00,West,274,0.0,0.0,41,0.00,,SKC,0.00,VWS V14.00,2013-03-07 10:21:00,
2013-03-07 05:26:00,30.2,9.4,0.00,West,280,0.0,0.0,41,0.00,,SKC,0.00,VWS V14.00,2013-03-07 10:26:00,
2013-03-07 05:31:00,30.2,9.4,0.00,WNW,288,0.0,0.0,41,0.00,,SKC,0.00,VWS V14.00,2013-03-07 10:31:00,
2013-03-07 05:36:00,30.2,9.4,0.00,NNW,331,0.0,0.0,41,0.00,,SKC,0.00,VWS V14.00,2013-03-07 10:36:00,
2013-03-07 05:41:00,30.2,9.4,0.00,WNW,285,0.0,0.0,41,0.00,,SKC,0.00,VWS V14.00,2013-03-07 10:41:00,
2013-03-07 05:46:00,30.0,9.2,0.00,WNW,285,0.0,0.0,41,0.00,,SKC,0.00,VWS V14.00,2013-03-07 10:46:00,
2013-03-07 05:51:00,30.0,9.2,0.00,WNW,285,0.0,0.0,41,0.00,,SKC,0.00,VWS V14.00,2013-03-07 10:51:00,
2013-03-07 05:56:00,30.2,9.4,0.00,WNW,285,0.0,0.0,41,0.00,,SKC,0.00,VWS V14.00,2013-03-07 10:56:00,
2013-03-07 06:01:00,30.0,9.2,0.00,WNW,292,0.0,0.0,41,0.00,,SKC,0.00,VWS V14.00,2013-03-07 11:01:00,
2013-03-07 06:06:00,30.0,9.2,0.00,WNW,297,0.0,0.0,41,0.00,,SKC,0.00,VWS V14.00,2013-03-07 11:06:00,
2013-03-07 06:11:00,30.0,9.2,0.00,WNW,297,0.0,0.0,41,0.00,,SKC,0.00,VWS V14.00,2013-03-07 11:11:00,
2013-03-07 06:16:00,30.0,9.2,0.00,WNW,291,0.0,0.0,41,0.00,,SKC,0.00,VWS V14.00,2013-03-07 11:16:00,
2013-03-07 06:21:00,30.0,9.2,0.00,WNW,291,0.0,0.0,41,0.00,,SKC,0.00,VWS V14.00,2013-03-07 11:21:00,
2013-03-07 06:26:00,30.0,9.2,0.00,WNW,291,0.0,0.0,41,0.00,,SKC,0.00,VWS V14.00,2013-03-07 11:26:00,
2013-03-07 06:31:00,30.0,9.2,0.00,WNW,291,0.0,0.0,41,0.00,,SKC,0.00,VWS V14.00,2013-03-07 11:31:00,
2013-03-07 06:36:00,30.0,9.2,0.00,WNW,291,0.0,0.0,41,0.00,,SKC,0.00,VWS V14.00,2013-03-07 11:36:00,
2013-03-07 06:41:00,30.0,9.2,0.00,WNW,290,0.0,0.0,41,0.00,,SKC,0.00,VWS V14.00,2013-03-07 11:41:00,
2013-03-07 06:46:00,30.0,9.2,0.00,WNW,291,0.0,0.0,41,0.00,,SKC,0.00,VWS V14.00,2013-03-07 11:46:00,
2013-03-07 06:51:00,30.0,9.2,0.00,WNW,289,0.0,0.0,41,0.00,,SKC,0.00,VWS V14.00,2013-03-07 11:51:00,
2013-03-07 06:56:00,30.0,9.2,0.00,WNW,289,0.0,0.0,41,0.00,,SKC,0.00,VWS V14.00,2013-03-07 11:56:00,
2013-03-07 07:01:00,30.0,9.2,0.00,WNW,289,0.0,0.0,41,0.00,,SKC,0.00,VWS V14.00,2013-03-07 12:01:00,
2013-03-07 07:06:00,30.0,9.2,0.00,WNW,289,0.0,0.0,41,0.00,,SKC,0.00,VWS V14.00,2013-03-07 12:06:00,
2013-03-07 07:11:00,30.0,9.2,0.00,WNW,289,0.0,0.0,41,0.00,,SKC,0.00,VWS V14.00,2013-03-07 12:11:00,
2013-03-07 07:16:00,30.0,9.2,0.00,WNW,289,0.0,0.0,41,0.00,,SKC,0.00,VWS V14.00,2013-03-07 12:16:00,
2013-03-07 07:21:00,30.0,9.2,0.00,WNW,289,0.0,0.0,41,0.00,,SKC,0.00,VWS V14.00,2013-03-07 12:21:00,
2013-03-07 07:26:00,30.2,9.4,0.00,WNW,289,0.0,0.0,41,0.00,,SKC,0.00,VWS V14.00,2013-03-07 12:26:00,
2013-03-07 07:31:00,30.2,9.4,0.00,WNW,289,0.0,0.0,41,0.00,,SKC,0.00,VWS V14.00,2013-03-07 12:31:00,
2013-03-07 07:36:00,30.2,9.4,0.00,WNW,289,0.0,0.0,41,0.00,,SKC,0.00,VWS V14.00,2013-03-07 12:36:00,
2013-03-07 07:41:00,30.4,9.5,0.00,WNW,292,0.0,0.0,41,0.00,,SKC,0.00,VWS V14.00,2013-03-07 12:41:00,
2013-03-07 07:46:00,30.6,9.7,0.00,WNW,292,0.0,0.0,41,0.00,,SKC,0.00,VWS V14.00,2013-03-07 12:46:00,
2013-03-07 07:51:00,30.6,9.7,0.00,WNW,292,0.0,0.0,41,0.00,,SKC,0.00,VWS V14.00,2013-03-07 12:51:00,
2013-03-07 07:56:00,30.7,9.8,0.00,WNW,292,0.0,0.0,41,0.00,,SKC,0.00,VWS V14.00,2013-03-07 12:56:00,
2013-03-07 08:01:00,30.9,10.0,0.00,WNW,285,0.0,0.0,41,0.00,,SKC,0.00,VWS V14.00,2013-03-07 13:01:00,
2013-03-07 08:06:00,30.9,10.0,0.00,WNW,290,0.0,0.0,41,0.00,,SKC,0.00,VWS V14.00,2013-03-07 13:06:00,
2013-03-07 08:11:00,31.1,10.2,0.00,WNW,297,0.0,0.0,41,0.00,,SKC,0.00,VWS V14.00,2013-03-07 13:11:00,
2013-03-07 08:16:00,31.1,10.2,0.00,WNW,297,0.0,0.0,41,0.00,,SKC,0.00,VWS V14.00,2013-03-07 13:16:00,
2013-03-07 08:21:00,31.3,10.3,0.00,WNW,297,0.0,0.0,41,0.00,,SKC,0.00,VWS V14.00,2013-03-07 13:21:00,
2013-03-07 08:26:00,31.5,10.5,0.00,WNW,297,0.0,0.0,41,0.00,,SKC,0.00,VWS V14.00,2013-03-07 13:26:00,
2013-03-07 08:31:00,31.5,10.5,0.00,WNW,295,0.0,0.0,41,0.00,,SKC,0.00,VWS V14.00,2013-03-07 13:31:00,
2013-03-07 08:36:00,31.6,10.6,0.00,WNW,286,0.0,0.0,41,0.00,,SKC,0.00,VWS V14.00,2013-03-07 13:36:00,
2013-03-07 08:41:00,32.0,11.0,0.00,WNW,286,0.0,0.0,41,0.00,,SKC,0.00,VWS V14.00,2013-03-07 13:41:00,
2013-03-07 08:46:00,32.2,11.1,0.00,WNW,287,0.0,0.0,41,0.00,,SKC,0.00,VWS V14.00,2013-03-07 13:46:00,
2013-03-07 08:51:00,32.5,11.5,0.00,West,274,0.0,0.0,41,0.00,,SKC,0.00,VWS V14.00,2013-03-07 13:51:00,
2013-03-07 08:56:00,32.7,11.6,0.00,WNW,283,0.0,0.0,41,0.00,,SKC,0.00,VWS V14.00,2013-03-07 13:56:00,
2013-03-07 09:01:00,32.5,10.9,0.00,West,263,0.0,0.0,40,0.00,,SKC,0.00,VWS V14.00,2013-03-07 14:01:00,
2013-03-07 09:06:00,32.7,11.1,0.00,WNW,284,0.0,0.0,40,0.00,,SKC,0.00,VWS V14.00,2013-03-07 14:06:00,
2013-03-07 09:11:00,32.7,11.1,0.00,West,280,0.0,0.0,40,0.00,,SKC,0.00,VWS V14.00,2013-03-07 14:11:00,
2013-03-07 09:16:00,32.7,11.1,0.00,West,280,0.0,0.0,40,0.00,,SKC,0.00,VWS V14.00,2013-03-07 14:16:00,
2013-03-07 09:21:00,32.7,11.1,0.00,NNW,338,0.0,0.0,40,0.00,,SKC,0.00,VWS V14.00,2013-03-07 14:21:00,
2013-03-07 09:26:00,32.9,11.2,0.00,WNW,283,0.0,0.0,40,0.00,,SKC,0.00,VWS V14.00,2013-03-07 14:26:00,
2013-03-07 09:31:00,32.9,11.2,0.00,NW,322,0.0,0.0,40,0.00,,SKC,0.00,VWS V14.00,2013-03-07 14:31:00,
2013-03-07 09:36:00,33.4,11.7,0.00,West,273,0.0,0.0,40,0.00,,SKC,0.00,VWS V14.00,2013-03-07 14:36:00,
2013-03-07 09:41:00,33.6,11.9,0.00,West,280,0.0,0.0,40,0.00,,SKC,0.00,VWS V14.00,2013-03-07 14:41:00,
2013-03-07 09:46:00,33.8,12.1,0.00,West,280,0.0,0.0,40,0.00,,SKC,0.00,VWS V14.00,2013-03-07 14:46:00,
2013-03-07 09:52:00,34.2,12.4,0.00,West,280,0.0,0.0,40,0.00,,SKC,0.00,VWS V14.00,2013-03-07 14:52:00,
2013-03-07 09:57:00,34.3,12.5,0.00,West,279,0.0,0.0,40,0.00,,SKC,0.00,VWS V14.00,2013-03-07 14:57:00,
2013-03-07 10:02:00,34.3,12.5,0.00,WNW,292,0.0,0.0,40,0.00,,SKC,0.00,VWS V14.00,2013-03-07 15:02:00,
2013-03-07 10:07:00,34.3,12.5,0.00,WNW,294,0.0,0.0,40,0.00,,SKC,0.00,VWS V14.00,2013-03-07 15:07:00,
2013-03-07 10:12:00,34.2,12.4,0.00,NW,307,0.0,0.0,40,0.00,,SKC,0.00,VWS V14.00,2013-03-07 15:12:00,
2013-03-07 10:17:00,34.3,12.5,0.00,WNW,303,0.0,0.0,40,0.00,,SKC,0.00,VWS V14.00,2013-03-07 15:17:00,
2013-03-07 10:22:00,35.1,13.2,0.00,WNW,303,0.0,0.0,40,0.00,,SKC,0.00,VWS V14.00,2013-03-07 15:22:00,
2013-03-07 10:27:00,34.9,13.0,0.00,NNW,335,0.0,0.0,40,0.00,,SKC,0.00,VWS V14.00,2013-03-07 15:27:00,
2013-03-07 10:32:00,35.2,13.4,0.00,NNW,341,0.0,0.0,40,0.00,,SKC,0.00,VWS V14.00,2013-03-07 15:32:00,
2013-03-07 10:37:00,34.9,13.0,0.00,WNW,284,0.0,0.0,40,0.00,,SKC,0.00,VWS V14.00,2013-03-07 15:37:00,
2013-03-07 10:42:00,35.2,13.4,0.00,WNW,289,0.0,0.0,40,0.00,,SKC,0.00,VWS V14.00,2013-03-07 15:42:00,
2013-03-07 10:47:00,35.4,13.5,0.00,North,353,3.1,3.6,40,0.00,,SKC,0.00,VWS V14.00,2013-03-07 15:47:00,
2013-03-07 10:52:00,35.2,13.4,0.00,WNW,292,3.6,4.0,40,0.00,,SKC,0.00,VWS V14.00,2013-03-07 15:52:00,
2013-03-07 10:57:00,35.1,13.2,0.00,WNW,291,0.0,5.8,40,0.00,,SKC,0.00,VWS V14.00,2013-03-07 15:57:00,
2013-03-07 11:02:00,34.9,13.0,0.00,WNW,295,5.4,5.4,40,0.00,,SKC,0.00,VWS V14.00,2013-03-07 16:02:00,
2013-03-07 11:07:00,34.7,12.9,0.00,West,273,3.1,5.4,40,0.00,,SKC,0.00,VWS V14.00,2013-03-07 16:07:00,
2013-03-07 11:12:00,35.1,13.2,0.00,WNW,284,3.6,5.4,40,0.00,,SKC,0.00,VWS V14.00,2013-03-07 16:12:00,
2013-03-07 11:17:00,35.4,13.5,0.00,WNW,286,0.0,5.4,40,0.00,,SKC,0.00,VWS V14.00,2013-03-07 16:17:00,
2013-03-07 11:22:00,35.4,13.5,0.00,WNW,287,0.0,5.4,40,0.00,,SKC,0.00,VWS V14.00,2013-03-07 16:22:00,
2013-03-07 11:27:00,35.4,13.5,0.00,West,280,3.1,5.4,40,0.00,,SKC,0.00,VWS V14.00,2013-03-07 16:27:00,
2013-03-07 11:32:00,36.0,14.0,0.00,WNW,286,2.7,5.4,40,0.00,,SKC,0.00,VWS V14.00,2013-03-07 16:32:00,
2013-03-07 11:37:00,35.8,13.8,0.00,West,260,2.7,5.4,40,0.00,,SKC,0.00,VWS V14.00,2013-03-07 16:37:00,
2013-03-07 11:42:00,35.8,13.8,0.00,West,261,2.7,5.4,40,0.00,,SKC,0.00,VWS V14.00,2013-03-07 16:42:00,
2013-03-07 11:47:00,36.0,14.0,0.00,WNW,298,2.7,5.4,40,0.00,,SKC,0.00,VWS V14.00,2013-03-07 16:47:00,
2013-03-07 11:52:00,37.2,15.1,0.00,WNW,297,2.7,5.4,40,0.00,,SKC,0.00,VWS V14.00,2013-03-07 16:52:00,
2013-03-07 11:57:00,37.2,15.1,0.00,West,271,3.1,5.4,40,0.00,,SKC,0.00,VWS V14.00,2013-03-07 16:57:00,
2013-03-07 12:02:00,37.0,15.0,0.00,West,277,2.7,3.6,40,0.00,,SKC,0.00,VWS V14.00,2013-03-07 17:02:00,
2013-03-07 12:07:00,38.1,15.4,0.00,WNW,289,0.0,4.0,39,0.00,,SKC,0.00,VWS V14.00,2013-03-07 17:07:00,
2013-03-07 12:12:00,39.7,16.8,0.00,WNW,288,3.6,4.0,39,0.00,,SKC,0.00,VWS V14.00,2013-03-07 17:12:00,
2013-03-07 12:17:00,39.9,17.0,0.00,West,268,3.1,4.9,39,0.00,,SKC,0.00,VWS V14.00,2013-03-07 17:17:00,
2013-03-07 12:22:00,39.2,16.3,0.00,West,271,2.7,4.9,39,0.00,,SKC,0.00,VWS V14.00,2013-03-07 17:22:00,
2013-03-07 12:27:00,39.4,16.5,0.00,West,265,0.0,4.9,39,0.00,,SKC,0.00,VWS V14.00,2013-03-07 17:27:00,
2013-03-07 12:32:00,39.9,17.0,0.00,WNW,283,0.0,4.9,39,0.00,,SKC,0.00,VWS V14.00,2013-03-07 17:32:00,
2013-03-07 12:37:00,40.5,17.5,0.00,NNW,341,0.0,5.8,39,0.00,,SKC,0.00,VWS V14.00,2013-03-07 17:37:00,
2013-03-07 12:42:00,42.3,18.5,0.00,NNW,335,0.0,5.8,38,0.00,,SKC,0.00,VWS V14.00,2013-03-07 17:42:00,
2013-03-07 12:47:00,42.4,18.6,0.00,NNW,346,0.0,5.8,38,0.00,,SKC,0.00,VWS V14.00,2013-03-07 17:47:00,
2013-03-07 12:52:00,43.5,19.6,0.00,NNW,344,4.0,5.8,38,0.00,,SKC,0.00,VWS V14.00,2013-03-07 17:52:00,
2013-03-07 12:57:00,43.7,19.8,0.00,NNE,28,0.0,5.8,38,0.00,,SKC,0.00,VWS V14.00,2013-03-07 17:57:00,
2013-03-07 13:02:00,42.4,18.6,0.00,North,353,3.1,4.0,38,0.00,,SKC,0.00,VWS V14.00,2013-03-07 18:02:00,
2013-03-07 13:07:00,42.4,18.6,0.00,North,353,0.0,4.0,38,0.00,,SKC,0.00,VWS V14.00,2013-03-07 18:07:00,
2013-03-07 13:12:00,42.6,18.8,0.00,WNW,298,2.7,4.0,38,0.00,,SKC,0.00,VWS V14.00,2013-03-07 18:12:00,
2013-03-07 13:17:00,42.4,18.6,0.00,West,281,3.6,4.0,38,0.00,,SKC,0.00,VWS V14.00,2013-03-07 18:17:00,
2013-03-07 13:22:00,43.5,19.6,0.00,WNW,285,2.2,7.2,38,0.00,,SKC,0.00,VWS V14.00,2013-03-07 18:22:00,
2013-03-07 13:27:00,44.4,20.4,0.00,WNW,292,2.7,7.2,38,0.00,,SKC,0.00,VWS V14.00,2013-03-07 18:27:00,
2013-03-07 13:32:00,43.0,19.1,0.00,WNW,289,3.6,7.2,38,0.00,,SKC,0.00,VWS V14.00,2013-03-07 18:32:00,
2013-03-07 13:37:00,43.3,19.5,0.00,West,275,0.0,7.2,38,0.00,,SKC,0.00,VWS V14.00,2013-03-07 18:37:00,
2013-03-07 13:42:00,42.1,18.3,0.00,NNW,332,3.1,7.2,38,0.00,,SKC,0.00,VWS V14.00,2013-03-07 18:42:00,
2013-03-07 13:47:00,41.9,18.2,0.00,WNW,294,0.0,7.2,38,0.00,,SKC,0.00,VWS V14.00,2013-03-07 18:47:00,
2013-03-07 13:52:00,42.1,18.3,0.00,West,280,3.1,7.2,38,0.00,,SKC,0.00,VWS V14.00,2013-03-07 18:52:00,
2013-03-07 13:57:00,40.3,17.3,0.00,West,262,5.4,7.6,39,0.00,,SKC,0.00,VWS V14.00,2013-03-07 18:57:00,
2013-03-07 14:02:00,40.5,17.5,0.00,West,278,0.0,4.0,39,0.00,,SKC,0.00,VWS V14.00,2013-03-07 19:02:00,
2013-03-07 14:07:00,40.5,17.5,0.00,West,262,5.4,6.3,39,0.04,,SKC,0.04,VWS V14.00,2013-03-07 19:07:00,
2013-03-07 14:12:00,39.9,17.0,0.00,West,274,5.8,8.7,39,0.04,,SKC,0.04,VWS V14.00,2013-03-07 19:12:00,
2013-03-07 14:17:00,39.7,16.8,0.00,West,278,3.6,8.7,39,0.04,,SKC,0.04,VWS V14.00,2013-03-07 19:17:00,
2013-03-07 14:22:00,40.8,17.8,0.00,West,280,2.7,8.7,39,0.04,,SKC,0.04,VWS V14.00,2013-03-07 19:22:00,
2013-03-07 14:27:00,40.8,17.8,0.00,West,280,3.6,8.7,39,0.04,,SKC,0.04,VWS V14.00,2013-03-07 19:27:00,
2013-03-07 14:32:00,41.4,17.7,0.00,North,357,0.0,8.7,38,0.04,,SKC,0.04,VWS V14.00,2013-03-07 19:32:00,
2013-03-07 14:37:00,40.8,17.8,0.00,North,353,0.0,8.7,39,0.04,,SKC,0.04,VWS V14.00,2013-03-07 19:37:00,
2013-03-07 14:42:00,41.9,18.2,0.00,WNW,285,3.1,8.7,38,0.08,,SKC,0.08,VWS V14.00,2013-03-07 19:42:00,
2013-03-07 14:47:00,41.7,18.0,0.00,NNW,345,3.6,8.7,38,0.08,,SKC,0.08,VWS V14.00,2013-03-07 19:47:00,
2013-03-07 14:52:00,42.1,18.3,0.00,NNW,345,0.0,8.7,38,0.08,,SKC,0.08,VWS V14.00,2013-03-07 19:52:00,
2013-03-07 14:57:00,41.9,18.2,0.00,NNW,345,0.0,8.7,38,0.08,,SKC,0.08,VWS V14.00,2013-03-07 19:57:00,
2013-03-07 15:02:00,41.7,18.0,0.00,North,350,0.0,2.7,38,0.08,,SKC,0.08,VWS V14.00,2013-03-07 20:02:00,
2013-03-07 15:07:00,41.7,18.0,0.00,NNW,341,2.2,5.4,38,0.08,,SKC,0.08,VWS V14.00,2013-03-07 20:07:00,
2013-03-07 15:12:00,41.7,18.0,0.00,NNW,341,0.0,5.4,38,0.12,,SKC,0.12,VWS V14.00,2013-03-07 20:12:00,
2013-03-07 15:17:00,41.0,17.4,0.00,NNW,329,2.2,5.4,38,0.12,,SKC,0.12,VWS V14.00,2013-03-07 20:17:00,
2013-03-07 15:22:00,40.6,17.6,0.00,West,269,0.0,5.4,39,0.12,,SKC,0.12,VWS V14.00,2013-03-07 20:22:00,
2013-03-07 15:27:00,40.1,17.1,0.00,WNW,300,0.0,5.4,39,0.12,,SKC,0.12,VWS V14.00,2013-03-07 20:27:00,
2013-03-07 15:32:00,40.3,17.3,0.00,West,271,2.2,6.3,39,0.12,,SKC,0.12,VWS V14.00,2013-03-07 20:32:00,
2013-03-07 15:37:00,39.9,17.0,0.00,West,271,0.0,6.3,39,0.12,,SKC,0.12,VWS V14.00,2013-03-07 20:37:00,
2013-03-07 15:42:00,39.7,16.8,0.00,West,271,2.7,6.3,39,0.12,,SKC,0.12,VWS V14.00,2013-03-07 20:42:00,
2013-03-07 15:47:00,39.0,16.2,0.00,West,271,0.0,6.3,39,0.12,,SKC,0.12,VWS V14.00,2013-03-07 20:47:00,
2013-03-07 15:52:00,38.7,15.9,0.00,NNW,328,0.0,6.3,39,0.12,,SKC,0.12,VWS V14.00,2013-03-07 20:52:00,
2013-03-07 15:57:00,38.7,15.9,0.00,NE,45,2.2,6.3,39,0.12,,SKC,0.12,VWS V14.00,2013-03-07 20:57:00,
2013-03-07 16:02:00,38.7,15.9,0.00,NE,45,0.0,0.0,39,0.04,,SKC,0.12,VWS V14.00,2013-03-07 21:02:00,
2013-03-07 16:07:00,38.8,16.0,0.00,NE,45,0.0,0.0,39,0.08,,SKC,0.16,VWS V14.00,2013-03-07 21:07:00,
2013-03-07 16:12:00,38.8,16.0,0.00,NNW,346,3.1,4.0,39,0.08,,SKC,0.16,VWS V14.00,2013-03-07 21:12:00,
2013-03-07 16:17:00,38.3,15.5,0.00,NNW,346,0.0,4.0,39,0.08,,SKC,0.16,VWS V14.00,2013-03-07 21:17:00,
2013-03-07 16:22:00,38.1,15.4,0.00,NNW,346,0.0,4.0,39,0.08,,SKC,0.16,VWS V14.00,2013-03-07 21:22:00,
2013-03-07 16:27:00,37.8,15.0,0.00,NNW,346,0.0,4.0,39,0.08,,SKC,0.16,VWS V14.00,2013-03-07 21:27:00,
2013-03-07 16:32:00,37.6,14.9,0.00,NNW,340,2.7,6.3,39,0.08,,SKC,0.16,VWS V14.00,2013-03-07 21:32:00,
2013-03-07 16:37:00,37.2,15.1,0.00,North,353,3.1,6.3,40,0.08,,SKC,0.16,VWS V14.00,2013-03-07 21:37:00,
2013-03-07 16:42:00,37.0,15.0,0.00,North,353,0.0,6.3,40,0.08,,SKC,0.16,VWS V14.00,2013-03-07 21:42:00,
2013-03-07 16:47:00,37.0,15.0,0.00,NNW,343,0.0,6.3,40,0.08,,SKC,0.16,VWS V14.00,2013-03-07 21:47:00,
2013-03-07 16:52:00,36.9,14.8,0.00,NNW,340,4.0,6.3,40,0.08,,SKC,0.16,VWS V14.00,2013-03-07 21:52:00,
2013-03-07 16:57:00,36.9,14.8,0.00,NNW,343,3.6,6.3,40,0.08,,SKC,0.16,VWS V14.00,2013-03-07 21:57:00,
2013-03-07 17:02:00,36.7,14.6,0.00,NNW,342,3.1,5.4,40,0.04,,SKC,0.16,VWS V14.00,2013-03-07 22:02:00,
2013-03-07 17:07:00,36.5,14.5,0.00,NNW,344,2.2,5.4,40,0.04,,SKC,0.16,VWS V14.00,2013-03-07 22:07:00,
2013-03-07 17:12:00,36.3,14.3,0.00,NNW,344,0.0,5.4,40,0.04,,SKC,0.16,VWS V14.00,2013-03-07 22:12:00,
2013-03-07 17:17:00,36.3,14.3,0.00,NNW,328,3.1,5.4,40,0.04,,SKC,0.16,VWS V14.00,2013-03-07 22:17:00,
2013-03-07 17:22:00,35.6,13.7,0.00,NNW,331,0.0,5.4,40,0.04,,SKC,0.16,VWS V14.00,2013-03-07 22:22:00,
2013-03-07 17:27:00,35.6,13.7,0.00,NNW,331,0.0,5.4,40,0.04,,SKC,0.16,VWS V14.00,2013-03-07 22:27:00,
2013-03-07 17:32:00,35.4,13.5,0.00,NNW,344,0.0,5.4,40,0.04,,SKC,0.16,VWS V14.00,2013-03-07 22:32:00,
2013-03-07 17:37:00,35.4,13.5,0.00,NNW,344,0.0,5.4,40,0.04,,SKC,0.16,VWS V14.00,2013-03-07 22:37:00,
2013-03-07 17:42:00,35.2,13.4,0.00,NNW,346,2.7,5.4,40,0.04,,SKC,0.16,VWS V14.00,2013-03-07 22:42:00,
2013-03-07 17:47:00,35.1,13.2,0.00,NNW,346,0.0,5.4,40,0.04,,SKC,0.16,VWS V14.00,2013-03-07 22:47:00,
2013-03-07 17:52:00,35.1,13.2,0.00,NNW,346,0.0,5.4,40,0.04,,SKC,0.16,VWS V14.00,2013-03-07 22:52:00,
2013-03-07 17:57:00,34.9,13.0,0.00,NNW,346,0.0,5.4,40,0.04,,SKC,0.16,VWS V14.00,2013-03-07 22:57:00,
2013-03-07 18:02:00,34.9,13.0,0.00,NNW,346,0.0,0.0,40,0.00,,SKC,0.16,VWS V14.00,2013-03-07 23:02:00,
2013-03-07 18:07:00,34.7,12.9,0.00,NNW,331,3.1,5.8,40,0.00,,SKC,0.16,VWS V14.00,2013-03-07 23:07:00,
2013-03-07 18:12:00,34.9,13.0,0.00,NW,325,2.2,5.8,40,0.00,,SKC,0.16,VWS V14.00,2013-03-07 23:12:00,
2013-03-07 18:17:00,34.5,12.7,0.00,NW,325,0.0,5.8,40,0.00,,SKC,0.16,VWS V14.00,2013-03-07 23:17:00,
2013-03-07 18:22:00,34.5,12.7,0.00,NNW,337,4.0,5.8,40,0.00,,SKC,0.16,VWS V14.00,2013-03-07 23:22:00,
2013-03-07 18:27:00,34.5,12.7,0.00,North,353,4.0,5.8,40,0.00,,SKC,0.16,VWS V14.00,2013-03-07 23:27:00,
2013-03-07 18:32:00,34.3,12.5,0.00,North,353,0.0,5.8,40,0.00,,SKC,0.16,VWS V14.00,2013-03-07 23:32:00,
2013-03-07 18:37:00,34.3,12.5,0.00,North,353,0.0,5.8,40,0.00,,SKC,0.16,VWS V14.00,2013-03-07 23:37:00,
2013-03-07 18:42:00,34.3,12.5,0.00,North,357,0.0,5.8,40,0.00,,SKC,0.16,VWS V14.00,2013-03-07 23:42:00,
2013-03-07 18:47:00,34.3,12.5,0.00,North,357,0.0,5.8,40,0.00,,SKC,0.16,VWS V14.00,2013-03-07 23:47:00,
2013-03-07 18:52:00,34.2,12.4,0.00,North,357,0.0,5.8,40,0.00,,SKC,0.16,VWS V14.00,2013-03-07 23:52:00,
2013-03-07 18:57:00,34.0,12.2,0.00,North,357,0.0,5.8,40,0.00,,SKC,0.16,VWS V14.00,2013-03-07 23:57:00,
2013-03-07 19:02:00,33.8,12.1,0.00,North,357,0.0,0.0,40,0.00,,SKC,0.16,VWS V14.00,2013-03-08 00:02:00,
2013-03-07 19:07:00,33.6,11.9,0.00,North,357,0.0,0.0,40,0.00,,SKC,0.16,VWS V14.00,2013-03-08 00:07:00,
2013-03-07 19:12:00,33.6,11.9,0.00,North,357,0.0,0.0,40,0.00,,SKC,0.16,VWS V14.00,2013-03-08 00:12:00,
2013-03-07 19:17:00,33.6,11.9,0.00,North,357,0.0,0.0,40,0.00,,SKC,0.16,VWS V14.00,2013-03-08 00:17:00,
2013-03-07 19:22:00,33.6,11.9,0.00,North,357,0.0,0.0,40,0.00,,SKC,0.16,VWS V14.00,2013-03-08 00:22:00,
2013-03-07 19:27:00,33.6,11.9,0.00,North,357,0.0,0.0,40,0.00,,SKC,0.16,VWS V14.00,2013-03-08 00:27:00,
2013-03-07 19:32:00,33.8,12.1,0.00,North,357,0.0,0.0,40,0.00,,SKC,0.16,VWS V14.00,2013-03-08 00:32:00,
2013-03-07 19:37:00,33.8,12.1,0.00,North,357,0.0,0.0,40,0.00,,SKC,0.16,VWS V14.00,2013-03-08 00:37:00,
2013-03-07 19:42:00,33.8,12.1,0.00,North,357,0.0,0.0,40,0.00,,SKC,0.16,VWS V14.00,2013-03-08 00:42:00,
2013-03-07 19:47:00,33.8,12.1,0.00,NNW,335,0.0,3.6,40,0.00,,SKC,0.16,VWS V14.00,2013-03-08 00:47:00,
2013-03-07 19:52:00,33.8,12.1,0.00,NNW,335,0.0,3.6,40,0.00,,SKC,0.16,VWS V14.00,2013-03-08 00:52:00,
2013-03-07 19:57:00,33.8,12.1,0.00,NNW,335,0.0,3.6,40,0.00,,SKC,0.16,VWS V14.00,2013-03-08 00:57:00,
2013-03-07 20:02:00,33.6,11.9,0.00,NNW,335,0.0,0.0,40,0.00,,SKC,0.16,VWS V14.00,2013-03-08 01:02:00,
2013-03-07 20:07:00,33.3,11.6,0.00,NNW,335,0.0,0.0,40,0.00,,SKC,0.16,VWS V14.00,2013-03-08 01:07:00,
2013-03-07 20:12:00,33.3,11.6,0.00,NNW,335,0.0,0.0,40,0.00,,SKC,0.16,VWS V14.00,2013-03-08 01:12:00,
2013-03-07 20:17:00,33.3,11.6,0.00,NNW,335,0.0,0.0,40,0.00,,SKC,0.16,VWS V14.00,2013-03-08 01:17:00,
2013-03-07 20:22:00,33.3,11.6,0.00,NNW,335,0.0,0.0,40,0.00,,SKC,0.16,VWS V14.00,2013-03-08 01:22:00,
2013-03-07 20:27:00,33.1,11.4,0.00,NNW,335,0.0,0.0,40,0.00,,SKC,0.16,VWS V14.00,2013-03-08 01:27:00,
2013-03-07 20:32:00,33.1,11.4,0.00,NNW,335,3.1,3.1,40,0.00,,SKC,0.16,VWS V14.00,2013-03-08 01:32:00,
2013-03-07 20:37:00,33.1,11.4,0.00,NNW,335,0.0,3.1,40,0.00,,SKC,0.16,VWS V14.00,2013-03-08 01:37:00,
2013-03-07 20:42:00,33.1,11.4,0.00,NNW,335,0.0,3.1,40,0.00,,SKC,0.16,VWS V14.00,2013-03-08 01:42:00,
2013-03-07 20:47:00,33.1,11.4,0.00,NNW,335,0.0,3.1,40,0.00,,SKC,0.16,VWS V14.00,2013-03-08 01:47:00,
2013-03-07 20:52:00,32.7,11.1,0.00,NNW,335,0.0,3.1,40,0.00,,SKC,0.16,VWS V14.00,2013-03-08 01:52:00,
2013-03-07 20:57:00,32.5,10.9,0.00,NNW,335,0.0,3.1,40,0.00,,SKC,0.16,VWS V14.00,2013-03-08 01:57:00,
2013-03-07 21:02:00,32.5,10.9,0.00,NNW,335,0.0,0.0,40,0.00,,SKC,0.16,VWS V14.00,2013-03-08 02:02:00,
2013-03-07 21:07:00,32.5,10.9,0.00,NNW,335,0.0,0.0,40,0.00,,SKC,0.16,VWS V14.00,2013-03-08 02:07:00,
2013-03-07 21:12:00,32.5,10.9,0.00,NNW,335,0.0,0.0,40,0.00,,SKC,0.16,VWS V14.00,2013-03-08 02:12:00,
2013-03-07 21:17:00,32.5,10.9,0.00,NNW,335,0.0,0.0,40,0.00,,SKC,0.16,VWS V14.00,2013-03-08 02:17:00,
2013-03-07 21:22:00,32.5,10.9,0.00,NNW,335,0.0,0.0,40,0.00,,SKC,0.16,VWS V14.00,2013-03-08 02:22:00,
2013-03-07 21:27:00,32.2,10.6,0.00,NNW,335,0.0,0.0,40,0.00,,SKC,0.16,VWS V14.00,2013-03-08 02:27:00,
2013-03-07 21:32:00,32.2,10.6,0.00,NNW,335,0.0,0.0,40,0.00,,SKC,0.16,VWS V14.00,2013-03-08 02:32:00,
2013-03-07 21:37:00,32.2,10.6,0.00,NNW,335,0.0,0.0,40,0.00,,SKC,0.16,VWS V14.00,2013-03-08 02:37:00,
2013-03-07 21:42:00,32.0,10.4,0.00,NNW,335,0.0,0.0,40,0.00,,SKC,0.16,VWS V14.00,2013-03-08 02:42:00,
2013-03-07 21:47:00,32.2,10.6,0.00,NNW,335,0.0,0.0,40,0.00,,SKC,0.16,VWS V14.00,2013-03-08 02:47:00,
2013-03-07 21:52:00,32.5,10.9,0.00,NNW,335,0.0,0.0,40,0.00,,SKC,0.16,VWS V14.00,2013-03-08 02:52:00,
2013-03-07 21:57:00,32.5,10.9,0.00,NNW,335,0.0,0.0,40,0.00,,SKC,0.16,VWS V14.00,2013-03-08 02:57:00,
2013-03-07 22:02:00,32.7,11.1,0.00,North,0,0.0,0.0,40,0.00,,SKC,0.16,VWS V14.00,2013-03-08 03:02:00,
2013-03-07 22:07:00,32.9,11.2,0.00,ENE,74,4.0,5.4,40,0.00,,SKC,0.16,VWS V14.00,2013-03-08 03:07:00,
2013-03-07 22:12:00,33.3,11.6,0.00,East,85,0.0,5.4,40,0.00,,SKC,0.16,VWS V14.00,2013-03-08 03:12:00,
2013-03-07 22:17:00,33.1,11.4,0.00,East,85,0.0,5.4,40,0.00,,SKC,0.16,VWS V14.00,2013-03-08 03:17:00,
2013-03-07 22:22:00,32.9,11.2,0.00,East,85,0.0,5.4,40,0.00,,SKC,0.16,VWS V14.00,2013-03-08 03:22:00,
2013-03-07 22:27:00,32.7,11.1,0.00,East,85,0.0,5.4,40,0.00,,SKC,0.16,VWS V14.00,2013-03-08 03:27:00,
2013-03-07 22:32:00,32.7,11.1,0.00,East,85,0.0,5.4,40,0.00,,SKC,0.16,VWS V14.00,2013-03-08 03:32:00,
2013-03-07 22:37:00,32.9,11.2,0.00,East,85,0.0,5.4,40,0.00,,SKC,0.16,VWS V14.00,2013-03-08 03:37:00,
2013-03-07 22:42:00,32.9,11.2,0.00,East,85,0.0,5.4,40,0.00,,SKC,0.16,VWS V14.00,2013-03-08 03:42:00,
2013-03-07 22:47:00,33.1,11.4,0.00,East,85,0.0,5.4,40,0.00,,SKC,0.16,VWS V14.00,2013-03-08 03:47:00,
2013-03-07 22:52:00,33.1,11.4,0.00,East,85,0.0,5.4,40,0.00,,SKC,0.16,VWS V14.00,2013-03-08 03:52:00,
2013-03-07 22:57:00,33.1,11.4,0.00,East,85,0.0,5.4,40,0.00,,SKC,0.16,VWS V14.00,2013-03-08 03:57:00,
2013-03-07 23:02:00,32.9,11.2,0.00,East,85,0.0,0.0,40,0.00,,SKC,0.16,VWS V14.00,2013-03-08 04:02:00,
2013-03-07 23:07:00,32.7,11.1,0.00,East,85,0.0,0.0,40,0.00,,SKC,0.16,VWS V14.00,2013-03-08 04:07:00,
2013-03-07 23:12:00,32.7,11.1,0.00,East,85,0.0,0.0,40,0.00,,SKC,0.16,VWS V14.00,2013-03-08 04:12:00,
2013-03-07 23:17:00,32.7,11.1,0.00,East,85,0.0,0.0,40,0.00,,SKC,0.16,VWS V14.00,2013-03-08 04:17:00,
2013-03-07 23:22:00,32.5,10.9,0.00,ENE,73,0.0,3.6,40,0.00,,SKC,0.16,VWS V14.00,2013-03-08 04:22:00,
2013-03-07 23:27:00,32.5,10.9,0.00,ENE,73,0.0,3.6,40,0.00,,SKC,0.16,VWS V14.00,2013-03-08 04:27:00,
2013-03-07 23:32:00,32.4,10.8,0.00,ENE,73,0.0,3.6,40,0.00,,SKC,0.16,VWS V14.00,2013-03-08 04:32:00,
2013-03-07 23:37:00,32.4,10.8,0.00,ENE,73,0.0,3.6,40,0.00,,SKC,0.16,VWS V14.00,2013-03-08 04:37:00,
2013-03-07 23:42:00,32.4,10.8,0.00,ENE,73,0.0,3.6,40,0.00,,SKC,0.16,VWS V14.00,2013-03-08 04:42:00,
2013-03-07 23:47:00,32.4,10.8,0.00,ENE,73,0.0,3.6,40,0.00,,SKC,0.16,VWS V14.00,2013-03-08 04:47:00,
2013-03-07 23:52:00,32.4,10.8,0.00,ENE,73,0.0,3.6,40,0.00,,SKC,0.16,VWS V14.00,2013-03-08 04:52:00,
2013-03-07 23:57:00,32.4,10.8,0.00,ENE,73,0.0,3.6,40,0.00,,SKC,0.16,VWS V14.00,2013-03-08 04:57:00,